Location: Byszew
(52.1813°N, 19.2693°E)
Time: 19:22:58
(UTC+00:00)

OBJECT-B - Pass Details

Date: 03 March 2021
Orbit: 414 x 427 km, 97.0° (Epoch: 11 April)

Event Time Altitude Azimuth Distance (km) Brightness Sun altitude
Exits shadow 18:05:12 39° 104° (ESE) 647 1.2 -15.9°
Maximum altitude 18:05:46 44° 72° (ENE) 594 1.1 -16.0°
Drops below altitude 10° 18:08:52 10° 359° (N) 1,516 3.7 -16.5°
Sets 18:10:56 0° 352° (N) 2,383 4.8 -16.8°
